User: anonymous   Login
Location: Unspecified
(0.0000°N, 0.0000°E)
Time: 19:12:02
(UTC+02:00)
Language:

ARIANE 5 R/B - Orbit

View from above orbital plane
View from above orbital plane
View from above satellite
View from above satellite

Ground track
Ground track

The orbit data is extracted from the following two-line orbital elements,

1 27387U 02009B   18170.84712926 -.00000002  00000-0  14104-4 0  9991
2 27387  98.5114 119.6650 0033364 123.8635 236.5733 14.35955712854303
Epoch (UTC): 19 June 2018 20:19:51
Eccentricity: 0.0033364
inclination: 98.5114°
perigee height: 748 km
apogee height: 796 km
right ascension of ascending node: 119.6650°
argument of perigee: 123.8635°
revolutions per day: 14.35955712
mean anomaly at epoch: 236.5733°
orbit number at epoch: 85430

The dashed part of the orbit path shows where the satellite is in the earth's shadow,  

DLR